User: anonymous   Login
Location: Valdosta
(30.8330°N, 83.2790°W)
Time: 18:07:00
(UTC-05:00)
Language:

Oscar 19 - Orbit

View from above orbital plane
View from above orbital plane
View from above satellite
View from above satellite

Ground track
Ground track

The orbit data is extracted from the following two-line orbital elements,

1 20442U 90005G   15060.37466306  .00000217  00000-0  95385-4 0  9997
2 20442 098.5038 358.0851 0012919 105.7674 254.4935 14.32691960311502
Epoch (UTC): 01 March 2015 08:59:30
Eccentricity: 0.0012919
inclination: 98.5038°
perigee height: 773 km
apogee height: 792 km
right ascension of ascending node: 358.0851°
argument of perigee: 105.7674°
revolutions per day: 14.32691960
mean anomaly at epoch: 254.4935°
orbit number at epoch: 31150

The dashed part of the orbit path shows where the satellite is in the earth's shadow,  

DLR